Location: �perlecques
(50.8057°N, 2.1521°E)
Time: 02:26:52
(UTC+00:00)

ITAMSAT 1 - Pass Details

Date: 10 April 2023
Orbit: 782 x 797 km, 98.8° (Epoch: 07 June)

Event Time Altitude Azimuth Distance (km) Brightness Sun altitude
Rises 20:47:53 0° 210° (SSW) 3,286 10.8 -18.9°
Reaches altitude 10° 20:50:57 10° 229° (SW) 2,364 10.2 -19.3°
Maximum altitude 20:54:26 18° 271° (W) 1,881 10.2 -19.7°
Drops below altitude 10° 20:57:57 10° 314° (NW) 2,379 11.4 -20.1°
Sets 21:01:05 0° 333° (NNW) 3,315 12.2 -20.4°
